GW2632 Weather Reports


Display with metric or nautical units.
time (UTC)temp
F
wind
direction
speed
MPH
gust
MPH
rain 1hr
in
rain 24hr
in
rain mn
in
humidity
%
barometer
mb
20260507120049 74 330 1.0 2.0 0.00 0.00 0.00 81 1015.9
20260507115545 74 348 0.0 2.0 0.00 0.00 0.00 81 1016.0
20260507115041 74 87 1.0 3.0 0.00 0.00 0.00 81 1016.1
20260507114537 74 250 3.0 6.0 0.00 0.00 0.00 81 1016.1
20260507114035 73 170 2.0 4.0 0.00 0.00 0.00 81 1015.8
20260507113532 73 342 1.0 2.0 0.00 0.00 0.00 81 1016.1
20260507113029 73 329 1.0 2.0 0.00 0.00 0.00 81 1015.9
20260507112527 73 225 3.0 3.0 0.00 0.00 0.00 81 1015.8
20260507112023 73 162 2.0 4.0 0.00 0.00 0.00 81 1015.8
20260507111520 73 315 1.0 3.0 0.00 0.00 0.00 82 1015.6
20260507111017 73 319 1.0 2.0 0.00 0.00 0.00 82 1015.5
20260507110513 72 331 1.0 2.0 0.00 0.00 0.00 82 1015.4
20260507110010 72 318 1.0 3.0 0.00 0.00 0.00 82 1015.3
20260507105507 72 322 2.0 2.0 0.00 0.00 0.00 82 1015.5
20260507105003 72 297 2.0 2.0 0.00 0.00 0.00 82 1015.4
20260507104501 72 281 2.0 3.0 0.00 0.00 0.00 82 1015.4
20260507103956 73 312 2.0 2.0 0.00 0.00 0.00 81 1015.4
20260507103453 73 347 1.0 2.0 0.00 0.00 0.00 81 1015.1
20260507102949 72 229 1.0 4.0 0.00 0.00 0.00 82 1015.2
20260507102446 72 338 1.0 2.0 0.00 0.00 0.00 82 1015.2
20260507101942 72 139 3.0 3.0 0.00 0.00 0.00 82 1015.1
20260507101437 72 221 3.0 4.0 0.00 0.00 0.00 82 1015.1
20260507100934 72 298 1.0 3.0 0.00 0.00 0.00 82 1014.9
20260507100432 72 333 2.0 2.0 0.00 0.00 0.00 82 1015.1
20260507095930 72 325 1.0 1.0 0.00 0.00 0.00 82 1015.0
20260507095427 72 331 0.0 1.0 0.00 0.00 0.00 83 1015.2
20260507094924 71 331 1.0 2.0 0.00 0.00 0.00 84 1015.0
20260507094420 71 345 0.0 0.0 0.00 0.00 0.00 85 1014.8
20260507093917 70 339 0.0 2.0 0.00 0.00 0.00 86 1014.8
20260507093415 70 346 0.0 1.0 0.00 0.00 0.00 87 1014.7
20260507092913 69 350 0.0 0.0 0.00 0.00 0.00 86 1014.7
20260507092409 69 349 0.0 0.0 0.00 0.00 0.00 87 1014.8
20260507091906 69 350 0.0 0.0 0.00 0.00 0.00 86 1014.8
20260507091402 69 351 0.0 0.0 0.00 0.00 0.00 86 1014.4
20260507090858 69 350 0.0 0.0 0.00 0.00 0.00 85 1014.5
20260507090354 69 352 0.0 0.0 0.00 0.00 0.00 85 1014.6
20260507085852 69 352 0.0 0.0 0.00 0.00 0.00 83 1014.4
20260507085348 70 352 0.0 0.0 0.00 0.00 0.00 83 1014.5
20260507084846 70 348 0.0 0.0 0.00 0.00 0.00 82 1014.5
20260507084342 70 355 0.0 0.0 0.00 0.00 0.00 82 1014.7
20260507083839 71 355 0.0 0.0 0.00 0.00 0.00 82 1014.6
20260507083336 71 350 0.0 0.0 0.00 0.00 0.00 82 1014.8
20260507082832 71 351 0.0 0.0 0.00 0.00 0.00 80 1014.5
20260507082328 71 352 0.0 0.0 0.00 0.00 0.00 79 1014.4
20260507081825 71 5 0.0 0.0 0.00 0.00 0.00 79 1014.6
20260507081321 71 3 0.0 1.0 0.00 0.00 0.00 79 1014.4
20260507080818 71 2 0.0 1.0 0.00 0.00 0.00 79 1014.1
20260507080314 71 29 1.0 1.0 0.00 0.00 0.00 80 1014.5
20260507075809 71 359 0.0 0.0 0.00 0.00 0.00 80 1014.6
20260507075307 70 358 0.0 0.0 0.00 0.00 0.00 80 1014.5
20260507074802 70 11 0.0 0.0 0.00 0.00 0.00 81 1014.3
20260507074300 70 353 0.0 0.0 0.00 0.00 0.00 81 1014.6
20260507073757 70 351 0.0 0.0 0.00 0.00 0.00 79 1014.5
20260507073254 70 351 0.0 0.0 0.00 0.00 0.00 78 1014.5
20260507072751 71 352 0.0 0.0 0.00 0.00 0.00 78 1014.8
20260507072248 71 350 0.0 0.0 0.00 0.00 0.00 78 1014.7
20260507071746 71 356 0.0 0.0 0.00 0.00 0.00 78 1014.7
20260507071242 71 357 0.0 0.0 0.00 0.00 0.00 78 1014.7
20260507070739 71 357 0.0 0.0 0.00 0.00 0.00 77 1014.8
20260507070236 71 357 0.0 0.0 0.00 0.00 0.00 77 1015.0
20260507065732 71 359 0.0 0.0 0.00 0.00 0.00 76 1014.9
20260507065229 72 355 0.0 0.0 0.00 0.00 0.00 76 1015.2
20260507064726 72 358 0.0 0.0 0.00 0.00 0.00 75 1015.0
20260507064226 72 0 1.0 1.0 0.00 0.00 0.00 75 1015.1
20260507063722 72 352 0.0 0.0 0.00 0.00 0.00 76 1015.3
20260507063219 72 352 0.0 0.0 0.00 0.00 0.00 76 1015.2
20260507062716 73 349 0.0 0.0 0.00 0.00 0.00 76 1015.3
20260507062214 73 351 0.0 0.0 0.00 0.00 0.00 75 1015.1
20260507061711 73 354 0.0 0.0 0.00 0.00 0.00 73 1015.3
20260507061209 73 356 0.0 0.0 0.00 0.00 0.00 72 1015.5
20260507060707 74 356 0.0 0.0 0.00 0.00 0.00 72 1015.6
20260507060203 74 354 0.0 0.0 0.00 0.00 0.00 71 1015.8
20260507055659 74 352 0.0 0.0 0.00 0.00 0.00 70 1015.6
20260507055155 74 349 0.0 0.0 0.00 0.00 0.00 69 1015.7
20260507054651 75 344 0.0 0.0 0.00 0.00 0.00 68 1015.5
20260507054148 75 2 1.0 1.0 0.00 0.00 0.00 68 1015.7
20260507053646 75 347 0.0 1.0 0.00 0.00 0.00 67 1015.6
20260507053144 75 315 1.0 3.0 0.00 0.00 0.00 67 1015.8
20260507052642 74 243 1.0 2.0 0.00 0.00 0.00 68 1015.9
20260507052138 73 344 1.0 1.0 0.00 0.00 0.00 70 1015.8
20260507051636 73 357 0.0 0.0 0.00 0.00 0.00 68 1015.7
20260507051132 73 1 0.0 0.0 0.00 0.00 0.00 68 1016.0
20260507050629 73 357 0.0 0.0 0.00 0.00 0.00 70 1016.0
20260507050126 73 351 0.0 0.0 0.00 0.00 0.00 71 1016.0
20260507045623 73 351 0.0 0.0 0.00 0.00 0.00 70 1015.9
20260507045120 74 350 0.0 0.0 0.00 0.00 0.00 68 1016.0
20260507044616 74 350 0.0 0.0 0.00 0.00 0.00 67 1016.1
20260507044114 74 350 0.0 0.0 0.00 0.00 0.00 66 1016.0
20260507043609 75 356 0.0 0.0 0.00 0.00 0.00 65 1016.0
20260507043107 75 350 0.0 0.0 0.00 0.00 0.00 64 1016.2
20260507042602 75 356 0.0 0.0 0.00 0.00 0.00 63 1016.4
20260507042057 76 5 0.0 0.0 0.00 0.00 0.00 63 1016.1
20260507041555 76 352 0.0 0.0 0.00 0.00 0.00 64 1016.3
20260507041052 76 316 1.0 2.0 0.00 0.00 0.00 63 1016.2
20260507040549 77 358 0.0 1.0 0.00 0.00 0.00 61 1016.4
20260507040045 77 355 0.0 0.0 0.00 0.00 0.00 61 1016.2
20260507035541 77 200 2.0 4.0 0.00 0.00 0.00 60 1016.5
20260507035037 77 333 1.0 1.0 0.00 0.00 0.00 60 1016.3
20260507034534 77 282 2.0 2.0 0.00 0.00 0.00 60 1016.3
20260507034032 77 330 1.0 2.0 0.00 0.00 0.00 61 1016.4
20260507033529 77 341 0.0 1.0 0.00 0.00 0.00 61 1016.3
20260507033026 76 91 2.0 2.0 0.00 0.00 0.00 61 1016.2
20260507032523 77 328 1.0 2.0 0.00 0.00 0.00 61 1016.4
20260507032020 77 355 0.0 0.0 0.00 0.00 0.00 60 1016.5
20260507031516 77 337 0.0 1.0 0.00 0.00 0.00 60 1016.3
20260507031014 77 356 0.0 1.0 0.00 0.00 0.00 60 1016.2
20260507030510 77 66 1.0 2.0 0.00 0.00 0.00 60 1016.3
20260507030008 77 354 1.0 1.0 0.00 0.00 0.00 59 1016.3
20260507025505 78 325 1.0 3.0 0.00 0.00 0.00 59 1016.4
20260507025002 78 13 1.0 3.0 0.00 0.00 0.00 58 1016.3
20260507024500 78 349 2.0 2.0 0.00 0.00 0.00 57 1016.3
20260507023956 78 228 2.0 4.0 0.00 0.00 0.00 57 1016.3
20260507023452 78 228 3.0 3.0 0.00 0.00 0.00 58 1016.2
20260507022949 78 296 1.0 2.0 0.00 0.00 0.00 57 1016.0
20260507022447 78 326 1.0 4.0 0.00 0.00 0.00 56 1016.3
20260507021942 78 230 4.0 4.0 0.00 0.00 0.00 57 1016.0
20260507021437 79 22 1.0 4.0 0.00 0.00 0.00 58 1015.6
20260507020935 79 5 2.0 2.0 0.00 0.00 0.00 57 1015.9
20260507020432 79 335 2.0 3.0 0.00 0.00 0.00 57 1015.9
20260507015929 79 316 1.0 6.0 0.00 0.00 0.00 57 1016.0
20260507015427 79 39 2.0 3.0 0.00 0.00 0.00 57 1015.5
20260507014924 79 93 2.0 3.0 0.00 0.00 0.00 58 1015.6
20260507014420 80 333 1.0 4.0 0.00 0.00 0.00 57 1015.4
20260507013917 80 32 3.0 9.0 0.00 0.00 0.00 56 1015.4
20260507013414 80 35 5.0 7.0 0.00 0.00 0.00 56 1015.2
20260507012912 80 107 5.0 6.0 0.00 0.00 0.00 56 1015.2
20260507012408 80 155 6.0 7.0 0.00 0.00 0.00 56 1015.2
20260507011904 80 217 2.0 6.0 0.00 0.00 0.00 56 1015.2
20260507011402 80 138 3.0 6.0 0.00 0.00 0.00 56 1015.2
20260507010901 81 134 4.0 9.0 0.00 0.00 0.00 55 1015.1
20260507010357 81 113 3.0 6.0 0.00 0.00 0.00 55 1015.5
20260507005854 81 72 2.0 6.0 0.00 0.00 0.00 56 1015.6
20260507005350 81 123 2.0 4.0 0.00 0.00 0.00 55 1015.2
20260507004848 81 21 2.0 9.0 0.00 0.00 0.00 55 1015.2
20260507004345 81 113 2.0 4.0 0.00 0.00 0.00 55 1015.3
20260507003842 82 160 6.0 8.0 0.00 0.00 0.00 55 1015.2
20260507003337 82 76 4.0 8.0 0.00 0.00 0.00 54 1015.1
20260507002832 82 228 4.0 6.0 0.00 0.00 0.00 54 1014.8
20260507002329 82 92 1.0 4.0 0.00 0.00 0.00 53 1014.8
20260507001827 83 40 3.0 7.0 0.00 0.00 0.00 53 1014.8
20260507001323 83 148 6.0 7.0 0.00 0.00 0.00 53 1014.9
20260507000820 83 139 3.0 8.0 0.00 0.00 0.00 52 1014.9
20260507000315 84 69 5.0 8.0 0.00 0.00 0.00 52 1014.6
20260506235812 84 104 4.0 7.0 0.00 0.00 0.00 52 1014.6
20260506235308 84 112 2.0 8.0 0.00 0.00 0.00 52 1014.8
20260506234805 85 33 2.0 6.0 0.00 0.00 0.00 52 1014.6
20260506234302 85 60 2.0 6.0 0.00 0.00 0.00 52 1014.7
20260506233800 86 157 4.0 6.0 0.00 0.00 0.00 51 1014.6
20260506233256 86 121 6.0 9.0 0.00 0.00 0.00 51 1014.5
20260506232753 86 135 4.0 9.0 0.00 0.00 0.00 50 1014.5
20260506232254 87 178 5.0 9.0 0.00 0.00 0.00 50 1014.7
20260506231751 87 130 9.0 10.0 0.00 0.00 0.00 49 1014.5
20260506231249 87 158 4.0 6.0 0.00 0.00 0.00 49 1014.4
20260506230745 88 133 4.0 8.0 0.00 0.00 0.00 48 1014.7
20260506230242 89 116 4.0 4.0 0.00 0.00 0.00 47 1014.5
20260506225739 91 113 5.0 8.0 0.00 0.00 0.00 42 1014.5
20260506225236 91 300 2.0 2.0 0.00 0.00 0.00 39 1014.3
20260506224732 91 103 2.0 4.0 0.00 0.00 0.00 40 1014.4
20260506224230 91 138 2.0 4.0 0.00 0.00 0.00 40 1014.2
20260506223726 91 30 1.0 2.0 0.00 0.00 0.00 39 1014.7
20260506223221 91 345 1.0 3.0 0.00 0.00 0.00 38 1014.6
20260506222719 91 291 3.0 6.0 0.00 0.00 0.00 38 1014.4
20260506222214 91 140 2.0 3.0 0.00 0.00 0.00 39 1014.5
20260506221712 91 306 3.0 6.0 0.00 0.00 0.00 39 1014.5
20260506221210 91 344 2.0 4.0 0.00 0.00 0.00 38 1014.5
20260506220707 91 139 2.0 3.0 0.00 0.00 0.00 41 1014.6
20260506220202 91 100 2.0 3.0 0.00 0.00 0.00 37 1014.6
20260506215659 91 318 1.0 2.0 0.00 0.00 0.00 37 1014.6
20260506215154 91 264 2.0 4.0 0.00 0.00 0.00 36 1014.6
20260506214651 91 146 2.0 4.0 0.00 0.00 0.00 37 1014.7
20260506214149 91 125 2.0 3.0 0.00 0.00 0.00 37 1014.7
20260506213647 91 143 3.0 6.0 0.00 0.00 0.00 38 1014.9
20260506213144 91 144 4.0 6.0 0.00 0.00 0.00 39 1014.6
20260506212641 91 37 1.0 4.0 0.00 0.00 0.00 37 1014.6
20260506212136 91 230 2.0 6.0 0.00 0.00 0.00 38 1014.8
20260506211632 91 154 4.0 7.0 0.00 0.00 0.00 38 1014.9
20260506211129 91 185 2.0 3.0 0.00 0.00 0.00 37 1014.7
20260506210627 91 350 1.0 3.0 0.00 0.00 0.00 38 1014.7
20260506210123 92 116 3.0 4.0 0.00 0.00 0.00 38 1014.6
20260506205620 91 357 1.0 4.0 0.00 0.00 0.00 37 1014.3
20260506205119 92 137 3.0 4.0 0.00 0.00 0.00 38 1014.7
20260506204618 92 271 3.0 7.0 0.00 0.00 0.00 37 1014.6
20260506204115 92 266 3.0 4.0 0.00 0.00 0.00 36 1014.7
20260506203613 92 332 1.0 4.0 0.00 0.00 0.00 36 1014.8
20260506203109 91 4 1.0 3.0 0.00 0.00 0.00 36 1014.8
20260506202607 91 292 2.0 4.0 0.00 0.00 0.00 36 1014.9
20260506202103 92 179 3.0 8.0 0.00 0.00 0.00 37 1015.0
20260506201600 92 225 4.0 6.0 0.00 0.00 0.00 37 1014.9
20260506201057 93 228 3.0 3.0 0.00 0.00 0.00 37 1014.7
20260506200553 92 22 2.0 3.0 0.00 0.00 0.00 35 1014.8
20260506200050 91 75 1.0 3.0 0.00 0.00 0.00 37 1014.7
20260506195547 91 118 4.0 7.0 0.00 0.00 0.00 38 1015.2
20260506195043 92 217 2.0 4.0 0.00 0.00 0.00 37 1014.7
20260506194541 92 337 2.0 4.0 0.00 0.00 0.00 37 1014.9
20260506194037 93 50 2.0 7.0 0.00 0.00 0.00 37 1015.2
20260506193535 92 5 1.0 2.0 0.00 0.00 0.00 38 1015.2
20260506193032 91 129 4.0 4.0 0.00 0.00 0.00 39 1015.2
20260506192529 91 307 1.0 4.0 0.00 0.00 0.00 39 1015.4
20260506192024 91 201 6.0 9.0 0.00 0.00 0.00 39 1015.5
20260506191522 92 125 4.0 6.0 0.00 0.00 0.00 38 1015.5
20260506191017 91 36 3.0 6.0 0.00 0.00 0.00 39 1015.6
20260506190515 90 103 2.0 3.0 0.00 0.00 0.00 39 1015.4
20260506190012 90 162 2.0 4.0 0.00 0.00 0.00 41 1015.6
20260506185509 91 222 3.0 4.0 0.00 0.00 0.00 40 1015.7
20260506185006 90 317 1.0 2.0 0.00 0.00 0.00 39 1015.6
20260506184503 90 128 3.0 8.0 0.00 0.00 0.00 40 1016.0
20260506184000 91 101 2.0 8.0 0.00 0.00 0.00 40 1016.0
20260506183455 91 340 1.0 6.0 0.00 0.00 0.00 40 1016.1
20260506182952 90 2 1.0 1.0 0.00 0.00 0.00 39 1016.2
20260506182450 90 209 3.0 6.0 0.00 0.00 0.00 41 1016.1
20260506181947 90 67 4.0 6.0 0.00 0.00 0.00 41 1016.2
20260506181445 90 266 2.0 6.0 0.00 0.00 0.00 39 1015.8
20260506180941 89 20 2.0 3.0 0.00 0.00 0.00 40 1016.1
20260506180438 90 1 2.0 4.0 0.00 0.00 0.00 41 1016.2
20260506175935 90 334 1.0 3.0 0.00 0.00 0.00 40 1016.2
20260506175431 91 155 6.0 8.0 0.00 0.00 0.00 39 1016.4
20260506174928 91 2 1.0 2.0 0.00 0.00 0.00 39 1016.3
20260506174426 89 322 1.0 1.0 0.00 0.00 0.00 41 1016.5
20260506173922 89 269 2.0 3.0 0.00 0.00 0.00 43 1016.8
20260506173419 89 151 4.0 6.0 0.00 0.00 0.00 41 1016.7
20260506172917 89 129 4.0 4.0 0.00 0.00 0.00 42 1016.7
20260506172413 89 264 4.0 6.0 0.00 0.00 0.00 43 1016.8
20260506171910 88 279 1.0 2.0 0.00 0.00 0.00 42 1016.8
20260506171408 88 154 3.0 6.0 0.00 0.00 0.00 43 1016.9
20260506170906 88 242 2.0 6.0 0.00 0.00 0.00 43 1016.7
20260506170402 88 251 2.0 6.0 0.00 0.00 0.00 44 1016.8
20260506165900 88 279 6.0 7.0 0.00 0.00 0.00 43 1016.9
20260506165359 87 321 2.0 3.0 0.00 0.00 0.00 44 1017.1
20260506164854 87 284 3.0 7.0 0.00 0.00 0.00 44 1017.0
20260506164351 88 222 4.0 7.0 0.00 0.00 0.00 47 1017.1
20260506163849 88 158 3.0 4.0 0.00 0.00 0.00 48 1017.1
20260506163343 88 348 1.0 4.0 0.00 0.00 0.00 46 1017.3
20260506162839 87 31 2.0 3.0 0.00 0.00 0.00 46 1017.5
20260506162337 86 41 1.0 2.0 0.00 0.00 0.00 47 1017.4
20260506161834 86 271 3.0 6.0 0.00 0.00 0.00 50 1017.3
20260506161331 86 350 0.0 3.0 0.00 0.00 0.00 48 1017.4
20260506160830 86 118 1.0 3.0 0.00 0.00 0.00 48 1017.5
20260506160326 85 213 5.0 6.0 0.00 0.00 0.00 49 1017.5
20260506155825 86 28 3.0 9.0 0.00 0.00 0.00 48 1017.4
20260506155321 86 64 2.0 4.0 0.00 0.00 0.00 48 1017.4
20260506153433 85 294 2.0 7.0 0.00 0.00 0.00 52 1017.3
20260506152930 84 205 4.0 7.0 0.00 0.00 0.00 53 1017.3
20260506152427 84 135 3.0 7.0 0.00 0.00 0.00 54 1017.5
20260506151926 84 231 5.0 6.0 0.00 0.00 0.00 53 1017.5
20260506151422 83 13 2.0 8.0 0.00 0.00 0.00 55 1017.2
20260506150920 83 37 1.0 7.0 0.00 0.00 0.00 57 1017.5
20260506150416 83 319 2.0 7.0 0.00 0.00 0.00 57 1017.4
20260506145913 83 191 3.0 6.0 0.00 0.00 0.00 59 1017.3
20260506145409 83 130 7.0 8.0 0.00 0.00 0.00 58 1017.4
20260506144907 82 36 2.0 7.0 0.00 0.00 0.00 62 1017.5
20260506144403 82 155 3.0 8.0 0.00 0.00 0.00 60 1017.5
20260506143902 82 123 4.0 7.0 0.00 0.00 0.00 64 1017.4
20260506143358 81 112 5.0 10.0 0.00 0.00 0.00 63 1017.3
20260506142857 81 156 2.0 6.0 0.00 0.00 0.00 66 1017.4
20260506142354 81 125 5.0 6.0 0.00 0.00 0.00 66 1017.3
20260506141852 80 336 2.0 4.0 0.00 0.00 0.00 68 1017.2
20260506141350 80 139 3.0 6.0 0.00 0.00 0.00 69 1017.2
20260506140848 80 146 4.0 8.0 0.00 0.00 0.00 69 1017.2
20260506140344 79 279 2.0 4.0 0.00 0.00 0.00 72 1017.2
20260506135841 79 307 1.0 6.0 0.00 0.00 0.00 73 1017.3
20260506135338 78 355 2.0 8.0 0.00 0.00 0.00 73 1017.4
20260506134834 78 56 5.0 8.0 0.00 0.00 0.00 74 1017.3
20260506134331 78 150 4.0 8.0 0.00 0.00 0.00 75 1017.2
20260506133828 77 191 3.0 6.0 0.00 0.00 0.00 77 1017.0
20260506133325 77 137 5.0 7.0 0.00 0.00 0.00 78 1017.1
20260506132821 77 147 3.0 7.0 0.00 0.00 0.00 78 1017.3
20260506132319 77 200 6.0 8.0 0.00 0.00 0.00 78 1016.9
20260506131817 77 113 2.0 4.0 0.00 0.00 0.00 78 1017.4
20260506131312 76 342 1.0 3.0 0.00 0.00 0.00 78 1017.3
20260506130810 76 26 2.0 3.0 0.00 0.00 0.00 79 1017.2
20260506130306 75 20 3.0 3.0 0.00 0.00 0.00 78 1017.0
20260506125804 75 21 2.0 3.0 0.00 0.00 0.00 79 1017.0
20260506125305 74 353 2.0 3.0 0.00 0.00 0.00 80 1017.0
20260506124800 74 23 1.0 2.0 0.00 0.00 0.00 81 1017.1
20260506124257 73 130 4.0 4.0 0.00 0.00 0.00 81 1017.0
20260506123755 73 44 1.0 3.0 0.00 0.00 0.00 81 1016.8
20260506123253 73 86 1.0 3.0 0.00 0.00 0.00 83 1016.8
20260506122750 72 356 2.0 3.0 0.00 0.00 0.00 83 1016.8
20260506122247 72 50 2.0 3.0 0.00 0.00 0.00 84 1017.0
20260506121745 71 98 1.0 2.0 0.00 0.00 0.00 85 1016.8
20260506121241 71 33 2.0 3.0 0.00 0.00 0.00 86 1016.7
20260506120738 70 6 0.0 1.0 0.00 0.00 0.00 86 1016.8